Content
SEND FEEDBACK

Daily
Averages
Monthly
Summary
United States of America

JASPER, TEXAS


Home > North America > United States > Texas
Elevation: 29 feet     Latitude: 30 56N     Longitude: 094 00W

WEATHER
 
SELECT A DAY
Number of Records: 218,157;   Date Range: 3/13/02 - 12/26/14
 
SHARE

PRINT THIS DATA

[ ← Previous Day ]
WEATHER ALMANAC - MARCH 6, 2013
[ Next Day → ]
[ °C ]   °F
Weather ElementAverageHighLow
Temperature49.9 °F64.8 °F (3:35 pm)36.3 °F (5:55 am)
Dewpoint28.7 °F38.1 °F (11:35 pm)22.1 °F (3:55 pm)
Humidity49.1 %87 % (11:35 pm)20 % (3:35 pm)
Barometer30.34 in30.43 in (8:35 am)30.28 in (5:35 pm)
Wind Speed3.9 mph9.2 mph (8:55 am)
Wind Gust17.3 mph (12:35 am)
Weather ElementAverage
Visibility9.8 mi
Wind DirectionS (184.7 °)

Weather ElementTotal
Precipitation---
Heating Degree Days14.5 (Base 65)
Growing Degree Days0.5 (Base 50)
Averaged from 70 records on March 6, 2013
WEATHER CONDITIONS BREAKOUT
WIND DIRECTION BREAKOUT
WEATHER BY HOUR - MARCH 6, 2013
[ °C ]   °F
Local TimeTemperatureDewpointHumidityBarometerVisibilityWind DirectionWind SpeedGust SpeedPrecipitationEventsConditions
12:35 AM49.1 °F24.4 °F38 %30.32 in10.0 miNorth (360°)8.1 mph17.3 mphClear
12:55 AM48.6 °F24.1 °F38 %30.32 in10.0 miNorth (360°)8.1 mphClear
1:15 AM47.5 °F24.4 °F41 %30.33 in10.0 miNNW (340°)5.8 mphClear
1:35 AM46.0 °F25.3 °F44 %30.33 in10.0 miNorth (350°)5.8 mphClear
1:55 AM45.1 °F26.1 °F47 %30.34 in10.0 miNNW (340°)5.8 mphClear
2:15 AM44.4 °F26.1 °F49 %30.34 in10.0 miNorth (350°)4.6 mphClear
2:35 AM43.9 °F26.2 °F50 %30.34 in10.0 miNorth (350°)3.5 mphClear
2:55 AM43.9 °F26.1 °F50 %30.34 in10.0 miCalmClear
3:15 AM43.2 °F26.6 °F52 %30.35 in10.0 miNorth (350°)3.5 mphClear
3:35 AM42.3 °F27.0 °F55 %30.35 in10.0 miNorth (350°)4.6 mphClear
3:55 AM41.5 °F27.3 °F57 %30.36 in10.0 miCalmClear
4:15 AM41.4 °F27.3 °F57 %30.36 in10.0 miCalmClear
4:35 AM40.8 °F27.3 °F59 %30.36 in10.0 miCalmClear
4:55 AM37.4 °F29.8 °F74 %30.37 in10.0 miCalmClear
5:15 AM37.8 °F30.7 °F76 %30.37 in10.0 miCalmClear
5:35 AM37.0 °F30.0 °F76 %30.38 in10.0 miCalmClear
5:55 AM36.3 °F29.1 °F75 %30.39 in10.0 miNorth (350°)4.6 mphClear
6:15 AM38.1 °F27.3 °F65 %30.39 in10.0 miNorth (350°)5.8 mphClear
6:35 AM37.4 °F27.7 °F68 %30.39 in10.0 miNorth (350°)4.6 mphClear
6:55 AM37.6 °F27.7 °F67 %30.41 in10.0 miNNW (340°)4.6 mphClear
7:15 AM38.1 °F28.8 °F69 %30.41 in10.0 miNNW (340°)6.9 mphClear
7:35 AM40.3 °F29.7 °F66 %30.41 in10.0 miNorth (350°)8.1 mphClear
7:55 AM42.6 °F29.7 °F60 %30.42 in10.0 miNorth (360°)6.9 mphClear
8:15 AM44.6 °F29.1 °F55 %30.42 in10.0 miNorth (360°)8.1 mphClear
8:35 AM46.6 °F29.1 °F51 %30.43 in10.0 miNorth (360°)8.1 mphClear
8:55 AM48.6 °F29.1 °F47 %30.43 in10.0 miNorth (10°)9.2 mphClear
9:15 AM49.5 °F27.3 °F42 %30.43 in10.0 miNNE (20°)9.2 mphClear
9:35 AM50.5 °F27.1 °F40 %30.43 in10.0 miNorth (350°)8.1 mphClear
9:55 AM51.4 °F26.2 °F38 %30.43 in10.0 miNNW (340°)4.6 mphClear
10:15 AM52.9 °F25.3 °F34 %30.43 in10.0 miNNE (30°)5.8 mphClear
10:35 AM54.0 °F25.5 °F33 %30.43 in10.0 miWNW (290°)4.6 mphClear
10:55 AM54.3 °F25.9 °F33 %30.43 in10.0 miNorth (350°)4.6 mphClear
11:15 AM55.2 °F25.9 °F32 %30.42 in10.0 miNNW (330°)6.9 mphClear
11:35 AM56.8 °F26.4 °F31 %30.41 in10.0 miNorth (360°)4.6 mphClear
11:55 AM58.1 °F27.1 °F31 %30.41 in10.0 miNNE (20°)4.6 mphClear
12:15 PM59.0 °F26.8 °F29 %30.39 in10.0 miNNE (30°)4.6 mphClear
12:35 PM59.4 °F26.4 °F28 %30.38 in10.0 miNNW (330°)6.9 mphClear
12:55 PM60.6 °F26.1 °F27 %30.37 in10.0 miNorth (350°)4.6 mphClear
1:15 PM61.3 °F25.7 °F26 %30.36 in10.0 miNW (320°)5.8 mphClear
1:35 PM61.5 °F24.3 °F24 %30.34 in10.0 miCalmClear
1:55 PM63.0 °F24.3 °F23 %30.34 in10.0 miWNW (300°)5.8 mphClear
2:15 PM63.5 °F24.3 °F22 %30.33 in7.0 miNorth (350°)8.1 mphClear
2:35 PM63.5 °F24.3 °F22 %30.32 in4.0 miNNE (20°)5.8 mphHaze
2:55 PM64.0 °F24.1 °F22 %30.31 in7.0 miNNW (330°)6.9 mphClear
3:15 PM64.6 °F23.0 °F21 %30.30 in10.0 miNW (310°)8.1 mphClear
3:35 PM64.8 °F22.8 °F20 %30.30 in10.0 miNorth (350°)6.9 mphClear
3:55 PM64.6 °F22.1 °F20 %30.30 in10.0 miNorth (360°)5.8 mphClear
4:15 PM64.4 °F22.1 °F20 %30.29 in10.0 miNNE (20°)3.5 mphClear
4:35 PM64.4 °F22.1 °F20 %30.29 in10.0 miNNW (330°)6.9 mphClear
4:55 PM63.7 °F22.3 °F21 %30.29 in10.0 miNorth (350°)6.9 mphClear
5:15 PM63.5 °F23.2 °F21 %30.29 in10.0 miNW (320°)5.8 mphClear
5:35 PM61.2 °F24.8 °F25 %30.28 in10.0 miNorth (350°)4.6 mphClear
5:55 PM59.7 °F27.1 °F29 %30.28 in10.0 miNorth (10°)3.5 mphClear
6:15 PM57.7 °F29.5 °F34 %30.28 in10.0 miCalmClear
6:35 PM53.4 °F35.8 °F51 %30.29 in10.0 miCalmClear
6:55 PM51.1 °F35.2 °F55 %30.28 in10.0 miCalmClear
7:15 PM49.8 °F35.6 °F58 %30.29 in10.0 miCalmClear
7:35 PM48.7 °F36.7 °F63 %30.29 in10.0 miEast (90°)4.6 mphClear
7:55 PM47.5 °F36.5 °F66 %30.28 in10.0 miCalmClear
8:15 PM46.6 °F36.3 °F67 %30.29 in10.0 miCalmClear
8:35 PM45.7 °F37.2 °F72 %30.30 in10.0 miCalmClear
8:55 PM43.9 °F37.0 °F77 %30.29 in10.0 miCalmClear
9:35 PM43.5 °F37.2 °F78 %30.29 in10.0 miCalmClear
9:55 PM42.1 °F36.9 °F82 %30.29 in10.0 miCalmClear
10:15 PM41.4 °F37.0 °F85 %30.29 in10.0 miCalmClear
10:35 PM41.5 °F37.4 °F85 %30.29 in10.0 miCalmClear
10:55 PM42.3 °F37.6 °F83 %30.29 in10.0 miCalmClear
11:15 PM41.9 °F37.9 °F86 %30.28 in10.0 miCalmClear
11:35 PM41.7 °F38.1 °F87 %30.28 in10.0 miCalmClear
11:55 PM41.9 °F37.9 °F86 %30.28 in10.0 miCalmClear
Hourly data recorded from KJAS, located miles away from Jasper, Texas







STORIES FROM OUR PARTNERS